When you browse on this site, cookies collect data to enhance your experience and personalize the content and advertising you see.
Visit our Privacy Policy to learn more. By continuing to use the site, you agree to this use of cookies and data.
  • In Italy
  • List of Countries
  • For 7 days
  • Water Temperature
  • Satellite Maps
  • Weather Map
  • Weather Widgets
  • user-avatar
    Login

    Hourly Weather Kapan

    Today, 26 March, Tuesday

    Time Temperature Precipitation Wind Pressure Humidity
    00:00 -1°C° 0.2 mm 2 mps 680 mmHg 91%
    01:00 +1°C° 0.1 mm 1 mps 680 mmHg 90%
    02:00 +1°C° 0.1 mm 1 mps 680 mmHg 90%
    03:00 +1°C° 0.1 mm 1 mps 680 mmHg 90%
    04:00 +1°C° 0 mm 1 mps 680 mmHg 90%
    05:00 +1°C° 0 mm 1 mps 680 mmHg 90%
    06:00 +1°C° 0 mm 1 mps 680 mmHg 90%
    07:00 +2°C° 0.1 mm 1 mps 681 mmHg 88%
    08:00 +4°C° 0.1 mm 1 mps 681 mmHg 86%
    09:00 +4°C° 0.1 mm 2 mps 681 mmHg 84%
    10:00 +5°C° 0.1 mm 2 mps 681 mmHg 83%
    11:00 +6°C° 0.1 mm 2 mps 681 mmHg 81%
    12:00 +7°C° 0.1 mm 2 mps 681 mmHg 80%
    13:00 +7°C° 0.1 mm 3 mps 680 mmHg 81%
    14:00 +7°C° 0.1 mm 3 mps 680 mmHg 81%
    15:00 +7°C° 0.1 mm 3 mps 680 mmHg 81%
    16:00 +7°C° 0 mm 2 mps 680 mmHg 83%
    17:00 +6°C° 0 mm 2 mps 680 mmHg 85%
    18:00 +6°C° 0 mm 1 mps 680 mmHg 87%
    19:00 +6°C° 0 mm 1 mps 680 mmHg 87%
    20:00 +5°C° 0 mm 1 mps 680 mmHg 87%
    21:00 +4°C° 0 mm 0 mps 680 mmHg 87%
    22:00 +4°C° 0 mm 1 mps 680 mmHg 86%
    23:00 +4°C° 0 mm 1 mps 680 mmHg 85%

    Tomorrow, 27 March, Wednesday

    Time Temperature Precipitation Wind Pressure Humidity
    00:00 +4°C° 0 mm 1 mps 680 mmHg 85%
    01:00 +4°C° 0 mm 1 mps 680 mmHg 82%
    02:00 +4°C° 0 mm 1 mps 680 mmHg 80%
    03:00 +4°C° 0 mm 1 mps 680 mmHg 78%
    04:00 +3°C° 0 mm 2 mps 680 mmHg 77%
    05:00 +4°C° 0 mm 2 mps 680 mmHg 75%
    06:00 +4°C° 0 mm 2 mps 680 mmHg 74%
    07:00 +6°C° 0 mm 2 mps 681 mmHg 71%
    08:00 +8°C° 0 mm 2 mps 681 mmHg 68%
    09:00 +10°C° 0 mm 2 mps 681 mmHg 65%
    10:00 +12°C° 0 mm 2 mps 681 mmHg 62%
    11:00 +12°C° 0 mm 3 mps 681 mmHg 59%
    12:00 +13°C° 0 mm 3 mps 681 mmHg 56%
    13:00 +13°C° 0 mm 3 mps 681 mmHg 55%
    14:00 +13°C° 0 mm 3 mps 681 mmHg 54%
    15:00 +14°C° 0 mm 3 mps 680 mmHg 53%
    16:00 +12°C° 0 mm 3 mps 680 mmHg 55%
    17:00 +12°C° 0 mm 2 mps 680 mmHg 57%
    18:00 +10°C° 0 mm 2 mps 680 mmHg 60%
    19:00 +9°C° 0 mm 2 mps 681 mmHg 61%
    20:00 +8°C° 0 mm 2 mps 681 mmHg 63%
    21:00 +7°C° 0 mm 2 mps 681 mmHg 65%
    22:00 +7°C° 0 mm 2 mps 681 mmHg 65%
    23:00 +7°C° 0 mm 2 mps 681 mmHg 64%

    Day after tomorrow, 28 March, Thursday

    Time Temperature Precipitation Wind Pressure Humidity
    00:00 +7°C° 0 mm 2 mps 681 mmHg 64%
    01:00 +7°C° 0 mm 2 mps 681 mmHg 64%
    02:00 +7°C° 0 mm 2 mps 681 mmHg 65%
    03:00 +8°C° 0 mm 1 mps 681 mmHg 65%
    04:00 +8°C° 0.1 mm 1 mps 682 mmHg 67%
    05:00 +7°C° 0.1 mm 1 mps 682 mmHg 69%
    06:00 +6°C° 0.1 mm 0 mps 682 mmHg 70%
    07:00 +8°C° 0.1 mm 1 mps 682 mmHg 69%
    08:00 +9°C° 0.1 mm 1 mps 683 mmHg 68%
    09:00 +10°C° 0.1 mm 1 mps 683 mmHg 66%
    10:00 +9°C° 0.3 mm 2 mps 683 mmHg 66%
    11:00 +10°C° 0.3 mm 2 mps 683 mmHg 65%
    12:00 +10°C° 0.3 mm 2 mps 683 mmHg 64%
    13:00 +10°C° 0.6 mm 2 mps 682 mmHg 66%
    14:00 +10°C° 0.6 mm 2 mps 682 mmHg 68%
    15:00 +9°C° 0.6 mm 2 mps 682 mmHg 70%
    16:00 +9°C° 0.2 mm 2 mps 682 mmHg 73%
    17:00 +9°C° 0.2 mm 1 mps 682 mmHg 75%
    18:00 +9°C° 0.2 mm 1 mps 682 mmHg 78%
    19:00 +8°C° 0.2 mm 1 mps 682 mmHg 80%
    20:00 +8°C° 0.2 mm 1 mps 683 mmHg 83%
    21:00 +7°C° 0.2 mm 1 mps 683 mmHg 85%
    22:00 +7°C° 0.3 mm 1 mps 683 mmHg 85%
    23:00 +7°C° 0.3 mm 1 mps 683 mmHg 85%

    29 March, Friday

    Time Temperature Precipitation Wind Pressure Humidity
    00:00 +6°C° 0.3 mm 0 mps 683 mmHg 86%
    01:00 +6°C° 0.3 mm 1 mps 683 mmHg 85%
    02:00 +6°C° 0.3 mm 1 mps 683 mmHg 85%
    03:00 +6°C° 0.3 mm 1 mps 683 mmHg 85%
    04:00 +6°C° 0.2 mm 1 mps 683 mmHg 86%
    05:00 +6°C° 0.2 mm 1 mps 683 mmHg 88%
    06:00 +5°C° 0.2 mm 1 mps 683 mmHg 89%
    07:00 +6°C° 0.4 mm 1 mps 683 mmHg 86%
    08:00 +6°C° 0.4 mm 2 mps 683 mmHg 84%
    09:00 +7°C° 0.4 mm 2 mps 683 mmHg 81%
    10:00 +7°C° 0.8 mm 3 mps 683 mmHg 81%
    11:00 +7°C° 0.8 mm 3 mps 683 mmHg 81%
    12:00 +8°C° 0.8 mm 3 mps 683 mmHg 80%
    13:00 +8°C° 1.2 mm 3 mps 682 mmHg 81%
    14:00 +8°C° 1.2 mm 3 mps 682 mmHg 81%
    15:00 +8°C° 1.2 mm 3 mps 682 mmHg 82%
    16:00 +7°C° 0.9 mm 3 mps 681 mmHg 84%
    17:00 +5°C° 0.9 mm 3 mps 681 mmHg 86%
    18:00 +6°C° 0.9 mm 2 mps 681 mmHg 89%
    19:00 +5°C° 0.7 mm 2 mps 682 mmHg 89%
    20:00 +5°C° 0.7 mm 2 mps 682 mmHg 90%
    21:00 +6°C° 0.7 mm 1 mps 682 mmHg 90%
    22:00 +6°C° 1 mm 1 mps 682 mmHg 90%
    23:00 +5°C° 1 mm 1 mps 682 mmHg 90%

    30 March, Saturday

    Time Temperature Precipitation Wind Pressure Humidity
    00:00 +5°C° 1 mm 1 mps 682 mmHg 91%
    01:00 +5°C° 1.2 mm 1 mps 682 mmHg 91%
    02:00 +5°C° 1.2 mm 1 mps 682 mmHg 92%
    03:00 +5°C° 1.2 mm 1 mps 681 mmHg 93%
    04:00 +5°C° 0.5 mm 1 mps 681 mmHg 93%
    05:00 +4°C° 0.5 mm 1 mps 682 mmHg 92%
    06:00 +4°C° 0.5 mm 1 mps 682 mmHg 92%
    07:00 +5°C° 0.4 mm 1 mps 682 mmHg 90%
    08:00 +5°C° 0.4 mm 2 mps 682 mmHg 88%
    09:00 +6°C° 0.4 mm 2 mps 683 mmHg 86%
    10:00 +7°C° 0.3 mm 2 mps 683 mmHg 85%
    11:00 +7°C° 0.3 mm 2 mps 683 mmHg 83%
    12:00 +8°C° 0.3 mm 3 mps 683 mmHg 82%
    13:00 +8°C° 0.2 mm 3 mps 682 mmHg 81%
    14:00 +8°C° 0.2 mm 3 mps 682 mmHg 80%
    15:00 +9°C° 0.2 mm 3 mps 682 mmHg 80%
    16:00 +8°C° 0.4 mm 3 mps 682 mmHg 83%
    17:00 +7°C° 0.4 mm 2 mps 682 mmHg 86%
    18:00 +6°C° 0.4 mm 2 mps 682 mmHg 89%
    19:00 +6°C° 0.4 mm 2 mps 683 mmHg 90%
    20:00 +5°C° 0.4 mm 2 mps 683 mmHg 91%
    21:00 +5°C° 0.4 mm 2 mps 684 mmHg 91%
    22:00 +6°C° 0.3 mm 1 mps 684 mmHg 92%
    23:00 +6°C° 0.3 mm 1 mps 684 mmHg 92%

    31 March, Sunday

    Time Temperature Precipitation Wind Pressure Humidity
    00:00 +6°C° 0.3 mm 1 mps 684 mmHg 92%
    01:00 +6°C° 0.1 mm 1 mps 683 mmHg 92%
    02:00 +6°C° 0.1 mm 1 mps 683 mmHg 93%
    03:00 +6°C° 0.1 mm 1 mps 683 mmHg 93%
    04:00 +6°C° 0.2 mm 1 mps 683 mmHg 93%
    05:00 +6°C° 0.2 mm 1 mps 683 mmHg 92%
    06:00 +5°C° 0.2 mm 2 mps 683 mmHg 92%
    07:00 +5°C° 0.1 mm 2 mps 682 mmHg 90%
    08:00 +6°C° 0.1 mm 2 mps 682 mmHg 88%
    09:00 +6°C° 0.1 mm 2 mps 682 mmHg 86%
    10:00 +7°C° 0.3 mm 2 mps 681 mmHg 85%
    11:00 +7°C° 0.3 mm 3 mps 681 mmHg 83%
    12:00 +8°C° 0.3 mm 3 mps 680 mmHg 81%
    13:00 +8°C° 1.1 mm 3 mps 680 mmHg 83%
    14:00 +7°C° 1.1 mm 3 mps 679 mmHg 84%
    15:00 +7°C° 1.1 mm 2 mps 679 mmHg 86%
    16:00 +7°C° 0 mm 2 mps 678 mmHg 87%
    17:00 +7°C° 0 mm 2 mps 678 mmHg 88%
    18:00 +8°C° 0 mm 1 mps 678 mmHg 89%
    19:00 +7°C° 0.4 mm 1 mps 678 mmHg 89%
    20:00 +7°C° 0.4 mm 1 mps 678 mmHg 89%
    21:00 +7°C° 0.4 mm 1 mps 678 mmHg 89%
    22:00 +7°C° 0 mm 1 mps 678 mmHg 88%
    23:00 +7°C° 0 mm 1 mps 678 mmHg 88%
    Show more